User: anonymous   Login
Location: B�rgermoos
(47.6500°N, 9.0667°E)
Time: 05:00:40
(UTC+00:00)
Language:

Vanguard 2 - Orbit

View from above orbital plane
View from above orbital plane
View from above satellite
View from above satellite

Ground track
Ground track

The orbit data is extracted from the following two-line orbital elements,

1 00011U 59001A   21206.76796722 -.00000033  00000-0 -18155-4 0  9996
2 00011  32.8711 341.0228 1468137   8.5176 353.7704 11.85802088322864
Epoch (UTC): 25 July 2021 18:25:52
Eccentricity: 0.1468137
inclination: 32.8711°
perigee height: 552 km
apogee height: 2937 km
right ascension of ascending node: 341.0228°
argument of perigee: 8.5176°
revolutions per day: 11.85802088
mean anomaly at epoch: 353.7704°
orbit number at epoch: 32286

The dashed part of the orbit path shows where the satellite is in the earth's shadow,  

DLR